Overview Statistics Trail Chart Weather Telemetry Raw packets
 

This is the latest recevied weather packets stored in our database for station/object DM8MH-13. If no packets are shown the sender has not sent any weather packets the latest 10 day(s).

<< 44 45 46 47 48 49 50 >>
Time Temp. Humidity Pressure Rain* Wind** Luminosity Snow
1787901072 21.11° C 85% 1008.1 hPa 0 mm - 207 W/m² -
1787900472 20.56° C 86% 1008.2 hPa 0 mm - 235 W/m² -
1787899872 20.56° C 85% 1008.4 hPa 0 mm - 103 W/m² -
1787899273 20° C 85% 1009.2 hPa 0 mm - 57 W/m² -
1787898673 20° C 86% 1009.1 hPa 0 mm - 91 W/m² -
1787898073 19.44° C 87% 1008.9 hPa 0 mm - 77 W/m² -
1787897472 19.44° C 87% 1009 hPa 0 mm - 70 W/m² -
1787896872 19.44° C 87% 1008.8 hPa 0 mm - 53 W/m² -
1787896273 19.44° C 87% 1008.8 hPa 0 mm - 42 W/m² -
1787895672 19.44° C 86% 1009 hPa 0 mm - 35 W/m² -
1787895073 19.44° C 86% 1009.1 hPa 0 mm - 35 W/m² -
1787894473 19.44° C 86% 1008.6 hPa 0 mm - 61 W/m² -
1787893872 18.89° C 86% 1008.1 hPa 0 mm - 34 W/m² -
1787893272 18.89° C 86% 1008.2 hPa 0 mm - 18 W/m² -
1787892675 18.89° C 86% 1008.2 hPa 0 mm - 11 W/m² -
1787892072 18.89° C 86% 1007.9 hPa 0 mm - 0 W/m² -
1787891473 18.89° C 85% 1008 hPa 0 mm - 0 W/m² -
1787890872 18.89° C 85% 1007.9 hPa 0 mm - 0 W/m² -
1787890272 18.89° C 84% 1007.6 hPa 0 mm - 0 W/m² -
1787889672 18.89° C 84% 1008.9 hPa 0 mm - 0 W/m² -
1787889072 21.11° C 74% 1016.6 hPa 0 mm - 455 W/m² -
1787888473 19.44° C 84% 1010.4 hPa 0 mm - 0 W/m² -
1787887872 18.89° C 83% 1010.3 hPa 0 mm - 0 W/m² -
1787887272 18.89° C 83% 1010.8 hPa 0 mm - 0 W/m² -
1787886676 19.44° C 82% 1011 hPa 0 mm - 0 W/m² -

* Rain latest hour (hover to see other rain measurements)
** Current wind speed in m/s (hover to see current wind gust speed)